Location: Sternwarte ZA, Rosenfeld-Brittheim
(48.2889°N, 8.6789°E)
Time: 16:15:59
(UTC+02:00)

Amateur Radio Satellites - All Passes

Search period start: 25 May 2017 15:45
Search period end: 26 May 2017 15:45
Location: Sternwarte ZA, Rosenfeld-Brittheim, 48.2889°N, 8.6789°E

Satellite Date Start Highest point End Downlink Frequencies (MHz)
Time Altitude Azimuth
NO-84 25 May 15:48:55 15:52:50 65° 27° (NNE) 15:56:22 435.350 FM
ITUPSAT 1 25 May 15:57:26 16:01:48 33° 96° (E) 16:06:07 437.325
UKube-1 25 May 16:00:49 16:04:24 26° 296° (WNW) 16:07:59 .
O/OREOS (USA 219) 25 May 16:03:32 16:06:20 16° 260° (W) 16:09:07 437.305
DX 1 25 May 16:05:39 16:08:37 18° 300° (WNW) 16:11:35 434.975-435.025
MOZHAYETS 4 25 May 16:28:24 16:32:47 39° 97° (E) 16:37:08
BEESAT 25 May 16:31:51 16:36:39 69° 103° (ESE) 16:41:26 436.000
DOVE 4 25 May 16:46:42 16:48:52 13° 59° (ENE) 16:51:00 437.250
BEESAT 2 25 May 16:57:27 17:00:17 18° 247° (WSW) 17:03:06 435.950
HO-68 25 May 17:03:45 17:04:52 10° 36° (NE) 17:05:59 435.675
CUBESAT XI-V 25 May 17:10:37 17:14:12 21° 91° (E) 17:17:45 437.345
ITAMSAT 1 25 May 17:14:42 17:18:21 19° 270° (W) 17:22:01 435.822/435.867
CUTE-I 25 May 17:18:55 17:22:37 20° 57° (ENE) 17:26:19 437.470
XW-2D 25 May 17:19:21 17:21:10 13° 60° (ENE) 17:23:00 145.860 - 145.880
XW-2B 25 May 17:26:48 17:29:00 15° 62° (ENE) 17:31:14 145.730 - 145.750
NO-84 25 May 17:27:04 17:30:04 24° 228° (SW) 17:32:53 435.350 FM
AO-7 25 May 17:28:28 17:35:17 28° 267° (W) 17:42:10 .
KKS-1 25 May 17:33:15 17:37:04 27° 95° (E) 17:40:52 437.445
ITUPSAT 1 25 May 17:35:15 17:39:37 35° 295° (WNW) 17:43:58 437.325
XW-2C 25 May 17:39:38 17:42:28 20° 64° (ENE) 17:45:19 145.795 - 145.815
XW-2F 25 May 17:39:52 17:42:38 19° 64° (ENE) 17:45:25 145.980 - 146.000
NUDT-PHONESAT 25 May 17:43:59 17:46:29 17° 63° (ENE) 17:49:00 437.300
KAITUO 1B 25 May 17:49:57 17:52:48 20° 64° (ENE) 17:55:39 145.475/437.950
MOZHAYETS 4 25 May 18:05:50 18:09:47 28° 296° (WNW) 18:13:44
STARS 25 May 18:08:29 18:12:17 28° 95° (E) 18:16:04 437.465
BEESAT 25 May 18:10:40 18:13:56 19° 301° (WNW) 18:17:11 436.000
LilacSat-2 25 May 18:14:58 18:18:40 48° 72° (ENE) 18:22:25 437.200
DOVE 4 25 May 18:21:25 18:26:02 84° 256° (WSW) 18:30:26 437.250
SEEDS 25 May 18:37:06 18:38:12 11° 57° (ENE) 18:39:18 437.485
XW-2A 25 May 18:39:37 18:40:15 10° 60° (ENE) 18:40:54 145.665 - 145.685
HO-68 25 May 18:44:09 18:50:38 38° 59° (ENE) 18:57:10 435.675
CUBESAT XI-V 25 May 18:47:20 18:51:51 49° 290° (WNW) 18:56:19 437.345
XW-2D 25 May 18:51:03 18:54:51 67° 258° (WSW) 18:58:41 145.860 - 145.880
CUTE-I 25 May 18:56:47 19:02:05 76° 256° (WSW) 19:07:26 437.470
XW-2B 25 May 18:59:01 19:02:46 56° 260° (W) 19:06:34 145.730 - 145.750
KKS-1 25 May 19:09:38 19:13:41 35° 293° (WNW) 19:17:42 437.445
XW-2C 25 May 19:12:51 19:16:26 38° 263° (W) 19:20:03 145.795 - 145.815
XW-2F 25 May 19:12:55 19:16:30 40° 262° (W) 19:20:09 145.980 - 146.000
NUDT-PHONESAT 25 May 19:16:31 19:20:05 44° 261° (W) 19:23:42 437.300
CUTE 1.7 + AOD 2 25 May 19:17:15 19:21:10 36° 68° (ENE) 19:25:08 437.475
KAITUO 1B 25 May 19:23:04 19:26:35 37° 263° (W) 19:30:09 145.475/437.950
STRAND 1 25 May 19:35:28 19:38:11 14° 87° (E) 19:40:53 437.568
ZACube-1 25 May 19:36:29 19:38:15 12° 57° (ENE) 19:40:02 437.345
AAUSAT CUBESAT 2 25 May 19:38:47 19:41:57 21° 64° (ENE) 19:45:07 437.432
CUBEBUG 2 25 May 19:40:23 19:44:03 31° 67° (ENE) 19:47:50 437.445
STARS 25 May 19:44:42 19:48:40 34° 293° (WNW) 19:52:38 437.465
PCSat 25 May 19:45:46 19:50:20 28° 110° (ESE) 19:54:56 145.827
LilacSat-2 25 May 19:50:51 19:53:14 16° 270° (W) 19:55:38 437.200
UWE-3 25 May 19:53:53 19:57:27 27° 65° (ENE) 20:01:06 435.000/436.395/437.385
SEEDS 25 May 20:08:54 20:13:09 80° 74° (ENE) 20:17:26 437.485
XW-2A 25 May 20:09:09 20:12:29 67° 258° (WSW) 20:15:52 145.665 - 145.685
HO-68 25 May 20:31:12 20:38:10 53° 259° (W) 20:45:13 435.675
Oscar 11 25 May 20:32:05 20:35:52 30° 66° (ENE) 20:39:42 .
CUTE-I 25 May 20:41:24 20:43:02 11° 275° (W) 20:44:41 437.470
CUTE 1.7 + AOD 2 25 May 20:53:31 20:57:05 25° 267° (W) 21:00:41 437.475
AO-73 25 May 20:56:31 21:00:40 62° 73° (ENE) 21:04:58 145.935
ISS 25 May 21:04:20 21:04:30 10° 133° (SE) 21:04:40 437.550
ZACube-1 25 May 21:09:37 21:13:50 89° 256° (WSW) 21:18:12 437.345
STRAND 1 25 May 21:12:52 21:18:04 86° 282° (WNW) 21:23:13 437.568
AAUSAT CUBESAT 2 25 May 21:13:08 21:17:08 44° 262° (W) 21:21:11 437.432
CUBEBUG 2 25 May 21:17:07 21:20:43 28° 266° (W) 21:24:23 437.445
PCSat 25 May 21:28:07 21:33:27 55° 310° (NW) 21:38:48 145.827
UWE-3 25 May 21:30:02 21:33:49 33° 264° (W) 21:37:43 435.000/436.395/437.385
DELFI C3 25 May 21:44:15 21:48:05 46° 71° (ENE) 21:51:56 145.870
SEEDS 25 May 21:47:54 21:49:24 12° 273° (W) 21:50:54 437.485
EO-88 25 May 22:07:26 22:11:02 59° 73° (ENE) 22:14:41 145.990 - 145.960
Oscar 11 25 May 22:08:05 22:11:58 31° 264° (W) 22:15:53 .
PRISM 25 May 22:12:21 22:14:16 13° 89° (E) 22:16:11 437.425
ESTCUBE 1 25 May 22:14:04 22:15:04 11° 54° (NE) 22:16:05 437.505/2401.250
Tancredo 1 25 May 22:18:36 22:21:36 53° 151° (SSE) 22:24:38 437.200
M-CUBED/EXP-1 PRIME 25 May 22:23:22 22:26:44 87° 109° (ESE) 22:29:59 437.505
FO-29 25 May 22:32:04 22:37:24 27° 93° (E) 22:43:13 435.910
AO-73 25 May 22:34:55 22:37:22 15° 272° (W) 22:39:51 145.935
ISS 25 May 22:37:09 22:40:23 53° 150° (SSE) 22:43:37 437.550
TIGRISAT 25 May 22:43:53 22:47:36 24° 93° (E) 22:51:20 435.000
STRAND 1 25 May 22:53:35 22:56:30 15° 305° (NW) 22:59:25 437.568
LO-87 25 May 22:55:27 22:58:35 30° 69° (ENE) 23:01:44 145.935 - 145.965
PCSat 25 May 23:14:34 23:18:05 17° 333° (NNW) 23:21:35 145.827
UNISAT 6 25 May 23:14:44 23:19:12 49° 99° (E) 23:23:43 437.425
VELOX 1 25 May 23:14:50 23:16:26 12° 56° (NE) 23:18:02 145.980
SPROUT 25 May 23:18:44 23:20:14 12° 57° (ENE) 23:21:44 437.525
DELFI C3 25 May 23:20:23 23:23:06 18° 269° (W) 23:25:51 145.870
EO-88 25 May 23:43:40 23:45:07 12° 271° (W) 23:46:33 145.990 - 145.960
PRISM 25 May 23:45:57 23:50:00 66° 288° (WNW) 23:54:01 437.425
ESTCUBE 1 25 May 23:46:31 23:51:01 70° 74° (ENE) 23:55:35 437.505/2401.250
SO-50 25 May 23:53:32 23:58:05 69° 125° (SE) 00:02:37 436.795
Tancredo 1 25 May 23:54:25 23:57:25 48° 350° (N) 00:00:26 437.200
DX 1 25 May 23:54:43 23:56:05 11° 55° (NE) 23:57:27 434.975-435.025
EO-79 26 May 00:01:05 00:02:27 11° 87° (E) 00:03:48 145.935-145.965
YUBILEINY 26 May 00:01:41 00:04:52 12° 68° (ENE) 00:08:04 435.215
ISS 26 May 00:13:42 00:16:56 51° 350° (N) 00:20:10 437.550
FO-29 26 May 00:16:39 00:22:47 64° 290° (WNW) 00:29:43 435.910
AIST 2D 26 May 00:18:09 00:21:21 30° 96° (E) 00:24:31 435.315
50 SAT 26 May 00:19:04 00:21:36 19° 65° (ENE) 00:24:08 437.505
TIGRISAT 26 May 00:20:06 00:24:27 44° 290° (WNW) 00:28:51 435.000
LO-87 26 May 00:29:19 00:32:05 21° 266° (W) 00:34:50 145.935 - 145.965
NANOSAT C BR1 26 May 00:45:15 00:48:59 29° 95° (E) 00:52:41 145.865
VELOX 1 26 May 00:47:44 00:52:10 82° 73° (ENE) 00:56:36 145.980
POLYITAN 1 26 May 00:48:30 00:52:26 34° 97° (E) 00:56:20 437.675
SPROUT 26 May 00:51:13 00:55:27 87° 75° (ENE) 00:59:44 437.525
UNISAT 6 26 May 00:52:04 00:55:38 23° 297° (WNW) 00:59:14 437.425
DUCHIFAT 1 26 May 00:56:32 01:00:25 33° 97° (E) 01:04:16 145.980
QB50P2 26 May 00:56:59 01:01:06 44° 99° (E) 01:05:12 145.880/145.840
PCSat 26 May 01:03:08 01:03:54 10° 360° (N) 01:04:39 145.827
BUGSAT 1 26 May 01:20:01 01:23:05 20° 93° (E) 01:26:09 437.445
UKube-1 26 May 01:22:06 01:26:15 50° 70° (ENE) 01:30:26 .
ESTCUBE 1 26 May 01:25:44 01:28:20 15° 271° (W) 01:30:55 437.505/2401.250
DX 1 26 May 01:27:11 01:31:32 80° 73° (ENE) 01:35:54 434.975-435.025
Tancredo 1 26 May 01:30:30 01:33:30 48° 10° (N) 01:36:30 437.200
EO-79 26 May 01:34:30 01:38:47 82° 285° (WNW) 01:43:03 145.935-145.965
SO-50 26 May 01:35:10 01:38:58 25° 326° (NW) 01:42:44 436.795
ISS 26 May 01:50:32 01:53:46 50° 10° (N) 01:56:59 437.550
50 SAT 26 May 01:51:09 01:54:18 32° 263° (W) 01:57:27 437.505
YUBILEINY 26 May 01:51:10 01:59:38 59° 91° (E) 02:08:12 435.215
AIST 2D 26 May 01:51:37 01:54:26 22° 294° (WNW) 01:57:13 435.315
FO-29 26 May 02:03:46 02:06:55 14° 308° (NW) 02:10:14 435.910
BEESAT 26 May 02:05:57 02:09:09 18° 58° (ENE) 02:12:21 436.000
RS-15 26 May 02:08:04 02:18:25 35° 105° (ESE) 02:28:55 29.354- 29.394
Gurwin Techsat 1B 26 May 02:12:44 02:16:19 18° 89° (E) 02:19:52 435.225
NANOSAT C BR1 26 May 02:20:55 02:24:41 31° 293° (WNW) 02:28:27 145.865
POLYITAN 1 26 May 02:24:29 02:28:06 27° 295° (WNW) 02:31:43 437.675
VELOX 1 26 May 02:27:28 02:29:12 12° 272° (W) 02:30:56 145.980
SPROUT 26 May 02:31:12 02:31:59 10° 273° (W) 02:32:47 437.525
DUCHIFAT 1 26 May 02:32:23 02:35:59 27° 295° (WNW) 02:39:34 145.980
QB50P2 26 May 02:33:22 02:36:38 22° 297° (WNW) 02:39:53 145.880/145.840
Oscar 19 26 May 02:43:11 02:48:14 49° 100° (E) 02:53:12 437.125/150
PCSat 26 May 02:46:15 02:49:44 17° 26° (NNE) 02:53:11 145.827
BUGSAT 1 26 May 02:54:43 02:58:38 43° 290° (WNW) 03:02:35 437.445
UKube-1 26 May 02:59:30 03:02:34 19° 268° (W) 03:05:38 .
Tancredo 1 26 May 03:06:18 03:09:19 53° 209° (SSW) 03:12:19 437.200
DX 1 26 May 03:06:32 03:08:17 12° 272° (W) 03:10:02 434.975-435.025
ITUPSAT 1 26 May 03:07:26 03:12:06 58° 70° (ENE) 03:16:49 437.325
EO-79 26 May 03:12:35 03:13:50 11° 304° (WNW) 03:15:06 145.935-145.965
SO-50 26 May 03:19:44 03:21:00 11° 350° (N) 03:22:16 436.795
ISS 26 May 03:27:05 03:30:19 55° 209° (SSW) 03:33:32 437.550
AO-7 26 May 03:32:13 03:37:47 19° 87° (E) 03:43:18 .
MOZHAYETS 4 26 May 03:33:27 03:37:56 56° 72° (ENE) 03:42:30
BEESAT 26 May 03:41:40 03:46:25 70° 257° (WSW) 03:51:12 436.000
ITAMSAT 1 26 May 03:43:24 03:46:47 17° 89° (E) 03:50:09 435.822/435.867
YUBILEINY 26 May 03:48:58 03:56:54 38° 294° (WNW) 04:04:56 435.215
Gurwin Techsat 1B 26 May 03:51:30 03:56:49 73° 288° (WNW) 04:02:07 435.225
CUBESAT XI-V 26 May 04:17:02 04:21:12 32° 66° (ENE) 04:25:23 437.345
RS-15 26 May 04:17:30 04:29:45 83° 310° (NW) 04:42:15 29.354- 29.394
Oscar 19 26 May 04:23:00 04:27:17 27° 298° (WNW) 04:31:33 437.125/150
PCSat 26 May 04:29:01 04:34:23 54° 50° (NE) 04:39:41 145.827
KKS-1 26 May 04:34:29 04:38:37 40° 68° (ENE) 04:42:46 437.445
O/OREOS (USA 219) 26 May 04:38:54 04:43:06 36° 107° (ESE) 04:47:19 437.305
ITUPSAT 1 26 May 04:46:52 04:50:18 19° 269° (W) 04:53:46 437.325
SO-50 26 May 05:01:41 05:03:30 12° 15° (NNE) 05:05:19 436.795
ISS 26 May 05:05:31 05:06:13 10° 227° (SW) 05:06:54 437.550
STARS 26 May 05:08:17 05:12:20 39° 68° (ENE) 05:16:24 437.465
MOZHAYETS 4 26 May 05:12:14 05:15:28 19° 270° (W) 05:18:44
ITAMSAT 1 26 May 05:21:36 05:26:49 74° 288° (WNW) 05:32:01 435.822/435.867
AO-7 26 May 05:23:26 05:31:50 80° 108° (ESE) 05:40:14 .
AO-85 26 May 05:32:02 05:35:50 36° 120° (ESE) 05:39:30 145.980
Gurwin Techsat 1B 26 May 05:33:19 05:35:52 14° 307° (NW) 05:38:25 435.225
BEESAT 3 26 May 05:37:23 05:39:34 14° 111° (ESE) 05:41:47 437.485
CUBESAT XI-V 26 May 05:54:15 05:58:31 34° 264° (W) 06:02:50 437.345
KKS-1 26 May 06:11:42 06:15:19 24° 266° (W) 06:18:57 437.445
PCSat 26 May 06:12:52 06:17:31 29° 249° (WSW) 06:22:07 145.827
DOVE 4 26 May 06:17:05 06:19:54 17° 91° (E) 06:22:45 437.250
O/OREOS (USA 219) 26 May 06:18:26 06:22:33 32° 306° (NW) 06:26:41 437.305
XW-2D 26 May 06:22:26 06:23:07 10° 87° (E) 06:23:48 145.860 - 145.880
XW-2B 26 May 06:29:29 06:31:08 12° 88° (E) 06:32:45 145.730 - 145.750
RS-15 26 May 06:32:44 06:44:16 42° 339° (NNW) 06:55:47 29.354- 29.394
SO-50 26 May 06:41:18 06:45:22 31° 39° (NE) 06:49:25 436.795
XW-2F 26 May 06:42:04 06:44:33 16° 91° (E) 06:47:01 145.980 - 146.000
XW-2C 26 May 06:42:17 06:44:54 17° 91° (E) 06:47:30 145.795 - 145.815
NUDT-PHONESAT 26 May 06:44:20 06:46:22 14° 90° (E) 06:48:23 437.300
STARS 26 May 06:45:16 06:48:49 24° 266° (W) 06:52:23 437.465
BEESAT 2 26 May 06:50:59 06:54:28 29° 117° (ESE) 06:58:00 435.950
KAITUO 1B 26 May 06:51:10 06:53:42 17° 91° (E) 06:56:13 145.475/437.950
STRAND 1 26 May 06:54:14 06:58:38 30° 63° (ENE) 07:03:03 437.568
ITAMSAT 1 26 May 07:02:55 07:05:25 14° 307° (NW) 07:07:56 435.822/435.867
CUTE-I 26 May 07:10:13 07:15:00 32° 95° (E) 07:19:46 437.470
AO-85 26 May 07:12:37 07:16:15 31° 319° (NW) 07:19:49 145.980
BEESAT 3 26 May 07:12:40 07:16:37 72° 309° (NW) 07:20:40 437.485
AO-7 26 May 07:16:55 07:23:53 31° 310° (NW) 07:30:52 .
LilacSat-2 26 May 07:18:35 07:22:20 44° 98° (E) 07:26:02 437.200
M-CUBED/EXP-1 PRIME 26 May 07:38:33 07:41:51 24° 60° (ENE) 07:44:59 437.505
SEEDS 26 May 07:51:39 07:52:28 10° 86° (E) 07:53:17 437.485
DOVE 4 26 May 07:53:54 07:57:55 48° 289° (WNW) 08:01:58 437.250
XW-2D 26 May 07:53:56 07:57:49 75° 284° (WNW) 08:01:39 145.860 - 145.880
HO-68 26 May 07:55:02 08:00:58 27° 92° (E) 08:06:52 435.675
XW-2B 26 May 08:01:54 08:05:44 63° 286° (WNW) 08:09:32 145.730 - 145.750
XW-2F 26 May 08:15:14 08:18:57 46° 289° (WNW) 08:22:37 145.980 - 146.000
XW-2C 26 May 08:15:38 08:19:20 44° 289° (WNW) 08:22:59 145.795 - 145.815
NUDT-PHONESAT 26 May 08:16:53 08:20:35 53° 287° (WNW) 08:24:16 437.300
SO-50 26 May 08:21:39 08:25:59 47° 239° (WSW) 08:30:19 436.795
KAITUO 1B 26 May 08:24:17 08:27:57 43° 289° (WNW) 08:31:33 145.475/437.950
BEESAT 2 26 May 08:28:23 08:32:08 37° 317° (NW) 08:35:57 435.950
STRAND 1 26 May 08:32:51 08:37:40 42° 262° (W) 08:42:32 437.568
CUTE 1.7 + AOD 2 26 May 08:33:45 08:37:51 43° 98° (E) 08:41:54 437.475
AO-73 26 May 08:43:44 08:44:03 10° 85° (E) 08:44:22 145.935
NO-84 26 May 08:47:18 08:49:26 14° 126° (SE) 08:51:35 435.350 FM
RS-15 26 May 08:49:23 09:00:44 39° 13° (NNE) 09:11:47 29.354- 29.394
CUTE-I 26 May 08:50:10 08:55:08 41° 294° (WNW) 09:00:06 437.470
FO-29 26 May 08:51:28 08:54:21 15° 53° (NE) 08:57:19 435.910
AAUSAT CUBESAT 2 26 May 08:51:50 08:55:05 22° 92° (E) 08:58:18 437.432
BEESAT 3 26 May 08:52:24 08:54:55 16° 331° (NNW) 08:57:28 437.485
LilacSat-2 26 May 08:53:34 08:56:19 19° 297° (WNW) 08:59:03 437.200
ZACube-1 26 May 08:55:08 08:57:49 15° 89° (E) 09:00:30 437.345
XW-2A 26 May 08:59:52 09:03:20 76° 103° (ESE) 09:06:46 145.665 - 145.685
CUBEBUG 2 26 May 09:02:51 09:07:14 45° 98° (E) 09:11:43 437.445
PRISM 26 May 09:04:47 09:07:28 17° 61° (ENE) 09:10:10 437.425
M-CUBED/EXP-1 PRIME 26 May 09:12:11 09:16:09 39° 255° (WSW) 09:19:52 437.505
AO-7 26 May 09:12:43 09:14:01 10° 335° (NNW) 09:15:19 .
UWE-3 26 May 09:14:59 09:19:15 38° 97° (E) 09:23:34 435.000/436.395/437.385
SEEDS 26 May 09:24:31 09:28:47 86° 287° (WNW) 09:32:59 437.485
HO-68 26 May 09:42:07 09:49:18 71° 292° (WNW) 09:56:26 435.675
TIGRISAT 26 May 09:46:07 09:49:50 30° 66° (ENE) 09:53:39 435.000
Oscar 11 26 May 09:51:02 09:55:05 36° 96° (E) 09:59:06 .
BEESAT 2 26 May 10:09:40 10:11:01 11° 339° (NNW) 10:12:23 435.950
CUTE 1.7 + AOD 2 26 May 10:10:07 10:13:27 22° 296° (WNW) 10:16:45 437.475
AO-73 26 May 10:16:26 10:20:59 81° 101° (E) 10:25:34 145.935
UNISAT 6 26 May 10:17:00 10:21:14 64° 72° (ENE) 10:25:34 437.425
NO-84 26 May 10:22:07 10:26:27 65° 143° (SE) 10:30:37 435.350 FM
AAUSAT CUBESAT 2 26 May 10:26:49 10:30:41 39° 291° (WNW) 10:34:32 437.432
ZACube-1 26 May 10:30:01 10:34:33 69° 286° (WNW) 10:39:06 437.345
FO-29 26 May 10:33:28 10:38:38 88° 72° (ENE) 10:44:03 435.910
PRISM 26 May 10:38:17 10:42:21 57° 259° (WSW) 10:46:26 437.425
CUBEBUG 2 26 May 10:39:59 10:43:38 24° 296° (WNW) 10:47:21 437.445
UWE-3 26 May 10:51:41 10:55:35 28° 294° (WNW) 10:59:31 435.000/436.395/437.385
DELFI C3 26 May 10:52:09 10:55:57 44° 99° (E) 10:59:42 145.870
AIST 2D 26 May 10:56:19 10:58:59 20° 66° (ENE) 11:01:39 435.315
EO-79 26 May 10:56:37 10:58:59 15° 59° (ENE) 11:01:22 145.935-145.965
SEEDS 26 May 11:02:23 11:03:46 11° 303° (WNW) 11:05:09 437.485
RS-15 26 May 11:03:31 11:15:52 69° 44° (NE) 11:27:38 29.354- 29.394
EO-88 26 May 11:06:09 11:09:43 46° 99° (E) 11:13:16 145.990 - 145.960
TIGRISAT 26 May 11:22:42 11:26:29 31° 265° (W) 11:30:23 435.000
Oscar 11 26 May 11:27:26 11:31:05 27° 295° (WNW) 11:34:44 .
HO-68 26 May 11:31:12 11:35:51 19° 313° (NW) 11:40:29 435.675
ESTCUBE 1 26 May 11:37:31 11:38:57 11° 86° (E) 11:40:21 437.505/2401.250
NANOSAT C BR1 26 May 11:40:36 11:44:22 34° 67° (ENE) 11:48:10 145.865
POLYITAN 1 26 May 11:44:18 11:48:13 40° 69° (ENE) 11:52:11 437.675
DUCHIFAT 1 26 May 11:51:33 11:55:25 39° 69° (ENE) 11:59:20 145.980
LO-87 26 May 11:52:03 11:54:54 22° 94° (E) 11:57:45 145.935 - 145.965
QB50P2 26 May 11:52:45 11:56:49 53° 71° (ENE) 12:00:57 145.880/145.840
AO-73 26 May 11:54:07 11:56:37 15° 301° (WNW) 11:59:09 145.935
UNISAT 6 26 May 11:56:00 11:58:25 15° 272° (W) 12:00:52 437.425
YUBILEINY 26 May 11:56:35 12:04:37 36° 66° (ENE) 12:12:35 435.215
NO-84 26 May 12:00:11 12:04:16 42° 342° (NNW) 12:08:07 435.350 FM
ZACube-1 26 May 12:09:06 12:10:00 11° 305° (NW) 12:10:54 437.345
BEESAT 3 26 May 12:12:59 12:13:44 10° 19° (NNE) 12:14:30 437.485
BUGSAT 1 26 May 12:13:14 12:16:22 22° 64° (ENE) 12:19:32 437.445
AO-85 26 May 12:19:27 12:22:16 18° 33° (NNE) 12:25:08 145.980
FO-29 26 May 12:22:23 12:24:41 13° 275° (W) 12:27:03 435.910
Oscar 19 26 May 12:26:37 12:30:03 18° 57° (ENE) 12:33:30 437.125/150
DELFI C3 26 May 12:27:39 12:30:26 19° 297° (WNW) 12:33:11 145.870
AIST 2D 26 May 12:28:50 12:32:01 32° 263° (W) 12:35:15 435.315
EO-79 26 May 12:30:04 12:34:14 70° 258° (WSW) 12:38:27 145.935-145.965
SPROUT 26 May 12:35:12 12:36:40 12° 87° (E) 12:38:10 437.525
VELOX 1 26 May 12:36:05 12:37:38 12° 87° (E) 12:39:11 145.980
EO-88 26 May 12:40:43 12:43:04 16° 297° (WNW) 12:45:26 145.990 - 145.960
AO-7 26 May 12:48:21 12:51:44 13° 31° (NNE) 12:55:06 .
O/OREOS (USA 219) 26 May 13:06:14 13:09:39 20° 48° (NE) 13:13:02 437.305
ESTCUBE 1 26 May 13:11:52 13:16:25 89° 285° (WNW) 13:20:56 437.505/2401.250
50 SAT 26 May 13:11:56 13:13:03 11° 90° (E) 13:14:10 437.505
DX 1 26 May 13:14:38 13:15:08 10° 87° (E) 13:15:38 434.975-435.025
NANOSAT C BR1 26 May 13:16:38 13:20:09 26° 266° (W) 13:23:41 145.865
RS-15 26 May 13:16:39 13:27:51 46° 250° (WSW) 13:38:34 29.354- 29.394
POLYITAN 1 26 May 13:20:54 13:24:11 22° 267° (W) 13:27:29 437.675
LO-87 26 May 13:25:16 13:28:21 28° 292° (WNW) 13:31:27 145.935 - 145.965
BEESAT 2 26 May 13:27:51 13:30:13 15° 27° (NNE) 13:32:35 435.950
DUCHIFAT 1 26 May 13:27:58 13:31:14 22° 267° (W) 13:34:33 145.980
QB50P2 26 May 13:30:10 13:32:57 17° 269° (W) 13:35:44 145.880/145.840
Gurwin Techsat 1B 26 May 13:36:55 13:41:51 41° 66° (ENE) 13:46:49 435.225
NO-84 26 May 13:38:51 13:42:34 31° 3° (N) 13:46:02 435.350 FM
BUGSAT 1 26 May 13:47:49 13:51:33 37° 262° (W) 13:55:19 437.445
BEESAT 3 26 May 13:48:51 13:52:32 32° 41° (NE) 13:56:10 437.485
YUBILEINY 26 May 13:53:17 14:01:57 62° 268° (W) 14:10:34 435.215
AO-85 26 May 13:59:09 14:03:10 85° 229° (SW) 14:07:21 145.980
Oscar 19 26 May 14:03:33 14:08:45 81° 256° (WSW) 14:14:00 437.125/150
SPROUT 26 May 14:08:51 14:13:09 81° 285° (WNW) 14:17:26 437.525
VELOX 1 26 May 14:10:17 14:14:41 83° 287° (WNW) 14:19:04 145.980
AO-7 26 May 14:34:45 14:42:15 40° 55° (NE) 14:49:48 .
UKube-1 26 May 14:41:05 14:45:19 54° 101° (E) 14:49:31 .
50 SAT 26 May 14:42:55 14:46:16 53° 287° (WNW) 14:49:34 437.505
O/OREOS (USA 219) 26 May 14:45:00 14:49:30 63° 248° (WSW) 14:53:55 437.305
DX 1 26 May 14:47:37 14:51:59 89° 118° (ESE) 14:56:19 434.975-435.025
ESTCUBE 1 26 May 14:50:26 14:52:32 13° 304° (WNW) 14:54:36 437.505/2401.250
ITAMSAT 1 26 May 15:04:26 15:09:11 38° 65° (ENE) 15:13:57 435.822/435.867
BEESAT 2 26 May 15:04:44 15:08:48 61° 49° (NE) 15:12:48 435.950
ITUPSAT 1 26 May 15:06:36 15:07:55 11° 86° (E) 15:09:14 437.325
NO-84 26 May 15:16:49 15:20:44 57° 24° (NNE) 15:24:18 435.350 FM
Gurwin Techsat 1B 26 May 15:17:09 15:21:53 33° 265° (W) 15:26:40 435.225
BEESAT 3 26 May 15:26:27 15:30:09 35° 241° (WSW) 15:33:47 437.485
MOZHAYETS 4 26 May 15:27:49 15:28:18 10° 85° (E) 15:28:47
AO-85 26 May 15:42:04 15:42:56 11° 250° (WSW) 15:43:49 145.980
